Regional Weather Roundup
Issued by NWS Jackson, KY

Home | Current Version | Previous Version | Graphics & Text | Print | Product List | Glossary On
Versions: 1 2 3 4 5 6 7 8 9 10 11 12 13 14 15 16 17 18 19 20 21 22 23 24 25 26 27
000
ASUS43 KJKL 191310
RWRJKL

EAST KENTUCKY HOURLY WEATHER ROUNDUP
NATIONAL WEATHER SERVICE JACKSON KY
900 AM EDT SAT AUG 19 2017

NOTE: "FAIR" INDICATES FEW OR NO CLOUDS BELOW 12,000 FEET WITH
NO SIGNIFICANT WEATHER AND/OR OBSTRUCTIONS TO VISIBILITY.

* THESE REPORTS ARE NOT UNDER NWS QUALITY CONTROL AND MAY NOT
  REPORT WEATHER SUCH AS PRECIPITATION AND FOG.

KYZ079-080-083-085-087-088-110-112-115-119-120-191400
...EASTERN KENTUCKY...

CITY           SKY/WX    TMP DP  RH WIND       PRES   REMARKS
JACKSON        CLOUDY    66  64  93 CALM      30.04F
LONDON         CLOUDY    67  64  90 CALM      30.05R
SOMERSET*      MOSUNNY   66  66 100 CALM      30.04F
MONTICELLO*    CLOUDY    69  67  93 W10       30.05S
WILLIAMSBURG*  CLOUDY    64  64 100 CALM      30.05S
MIDDLESBORO*   CLOUDY    64  64 100 CALM      30.08R FOG
HARLAN APT*    CLOUDY    63  63 100 CALM      30.09R VSB 1/2
PIKE CO APT*   FOG       65  65 100 S5        30.05R VSB<1/4
BIG SANDY APT* SUNNY     69  67  93 CALM      30.04S
MOREHEAD APT*  CLOUDY    70  66  88 S5        30.03R
$$

KYZ035-036-041-042-044-050-067-078-099-191400
...CENTRAL KENTUCKY...

CITY           SKY/WX    TMP DP  RH WIND       PRES   REMARKS
MT STERLING*   CLOUDY    70  64  83 SW5       30.03S
FLEMING/MASON* MOSUNNY   70  66  87 SW6       30.01S
DANVILLE*      CLOUDY    68  64  88 SW6       30.04R
LEXINGTON      MOSUNNY   71  65  81 S5        30.02R
FRANKFORT      SUNNY     72  65  78 S6        29.99R
LOUISVILLE     CLOUDY    73  67  81 SE8       29.96F
LEBANON*         N/A     72  66  83 S7        30.01S
GLASGOW*       SUNNY     71  68  92 W3        30.02R
BOWLING GREEN  MOSUNNY   74  69  85 S5        30.01R
$$

KYZ091>093-OHZ055-061-077-WVZ005-015-034-035-042-191400
...SOUTHERN OHIO/WEST VIRGINIA...

CITY           SKY/WX    TMP DP  RH WIND       PRES   REMARKS
COVINGTON      PTSUNNY   70  68  93 SW8       29.96F
COLUMBUS       CLOUDY    69  66  90 S5        29.93F
DAYTON         CLOUDY    72  63  73 W8        29.94F
WILMINGTON     CLOUDY    69  67  93 S5        29.96R
HUNTINGTON     CLOUDY    68  65  90 SW3       29.99S
CHARLESTON     PTSUNNY   71  67  87 S5        30.01R
PINEVILLE*     CLOUDY    68  66  93 MISG      30.12R
BECKLEY        MOSUNNY   64  63  96 W3        30.09R
BLUEFIELD      MOSUNNY   63  61  93 W6        30.11R
LOGAN CO APT*  FOG       66  66 100 CALM      30.05S VSB<1/4
$$

VAZ002-007-008-TNZ017-027-036-066-071-191400
...SOUTHWEST VIRGINIA/EAST TENNESSEE...

CITY           SKY/WX    TMP DP  RH WIND       PRES   REMARKS
WISE*          SUNNY     64  64 100 SW3       30.12R
JONESVILLE*    FOG       63  63 100 CALM      30.10R VSB<1/4
ABINGDON*      FOG       67  67 100 W5        30.09R VSB 1/4
BRISTOL        FOG       66  66 100 CALM      30.07R VSB 3/4
MORRISTOWN*    SUNNY     72  66  83 CALM      30.05R
SEVIERVILLE*   SUNNY     70  66  88 CALM      30.05R
KNOXVILLE      MOSUNNY   71  67  87 CALM      30.04R
LAFOLLETTE*    SUNNY     66  66 100 CALM      30.09R
OAK RIDGE      SUNNY     70  65  84 CALM      30.05S
CROSSVILLE     CLOUDY    66  64  93 CALM      30.08S
NASHVILLE      CLOUDY    73  68  84 S3        30.02R
$$

...KEY TO REMARKS...
VSB - VISIBILITY IN MILES
WCI - WIND CHILL INDEX
HX  - HEAT INDEX

$$




USA.gov is the U.S. government's official web portal to all federal, state and local government web resources and services.